| time (UTC) | temp F | wind direction | speed knots | gust knots | rain 1hr in | rain 24hr in | rain mn in | humidity % | barometer mb |
| 20260506155616 | 46 | 23 | 2.6 | 4.3 | 0.02 | 1.04 | 1.04 | 95 | 1008.9 |
| 20260506154617 | 46 | 23 | 4.3 | 6.1 | 0.03 | 1.04 | 1.04 | 95 | 1008.9 |
| 20260506153616 | 46 | 45 | 4.3 | 6.1 | 0.03 | 1.04 | 1.04 | 94 | 1008.9 |
| 20260506152616 | 46 | 23 | 5.2 | 8.7 | 0.03 | 1.03 | 1.03 | 94 | 1008.9 |
| 20260506151617 | 46 | 23 | 4.3 | 9.6 | 0.05 | 1.03 | 1.03 | 94 | 1008.9 |
| 20260506150616 | 45 | 45 | 7.8 | 12.2 | 0.06 | 1.03 | 1.03 | 95 | 1008.9 |
| 20260506145616 | 45 | 23 | 9.6 | 13.0 | 0.06 | 1.02 | 1.02 | 95 | 1008.9 |
| 20260506144616 | 46 | 23 | 7.0 | 11.3 | 0.07 | 1.01 | 1.01 | 95 | 1008.9 |
| 20260506143616 | 46 | 45 | 7.0 | 10.4 | 0.08 | 1.01 | 1.01 | 95 | 1008.9 |
| 20260506142616 | 45 | 23 | 4.3 | 6.1 | 0.08 | 1.00 | 1.00 | 95 | 1008.9 |
| 20260506141616 | 45 | 23 | 4.3 | 7.8 | 0.07 | 0.98 | 0.98 | 95 | 1008.9 |
| 20260506140616 | 45 | 45 | 5.2 | 8.7 | 0.06 | 0.97 | 0.97 | 95 | 1008.9 |
| 20260506135616 | 45 | 45 | 6.1 | 10.4 | 0.07 | 0.96 | 0.96 | 95 | 1008.8 |
| 20260506134616 | 46 | 45 | 7.8 | 12.2 | 0.06 | 0.94 | 0.94 | 95 | 1008.8 |
| 20260506133616 | 46 | 0 | 3.5 | 5.2 | 0.07 | 0.93 | 0.93 | 95 | 1008.6 |
| 20260506132616 | 46 | 0 | 3.5 | 4.3 | 0.08 | 0.92 | 0.92 | 95 | 1008.4 |
| 20260506131615 | 46 | 0 | 3.5 | 5.2 | 0.08 | 0.91 | 0.91 | 95 | 1008.4 |
| 20260506130616 | 46 | 0 | 2.6 | 3.5 | 0.10 | 0.91 | 0.91 | 95 | 1008.4 |
| 20260506125616 | 46 | 23 | 5.2 | 7.0 | 0.09 | 0.89 | 0.89 | 95 | 1008.4 |
| 20260506124615 | 46 | 45 | 4.3 | 6.1 | 0.10 | 0.88 | 0.88 | 95 | 1008.4 |
| 20260506123616 | 46 | 23 | 3.5 | 6.1 | 0.09 | 0.86 | 0.86 | 95 | 1008.4 |
| 20260506122615 | 46 | 23 | 3.5 | 4.3 | 0.09 | 0.85 | 0.84 | 95 | 1008.4 |
| 20260506121616 | 46 | 45 | 7.0 | 11.3 | 0.09 | 0.84 | 0.83 | 95 | 1008.4 |
| 20260506120615 | 46 | 23 | 7.8 | 10.4 | 0.09 | 0.82 | 0.81 | 95 | 1008.3 |
| 20260506115615 | 46 | 23 | 8.7 | 12.2 | 0.09 | 0.81 | 0.80 | 95 | 1008.3 |
| 20260506114615 | 46 | 23 | 5.2 | 6.1 | 0.09 | 0.79 | 0.78 | 95 | 1008.3 |
| 20260506113615 | 46 | 0 | 5.2 | 10.4 | 0.09 | 0.79 | 0.77 | 95 | 1008.1 |
| 20260506112615 | 46 | 23 | 6.1 | 9.6 | 0.08 | 0.77 | 0.75 | 95 | 1008.0 |
| 20260506111615 | 46 | 45 | 9.6 | 13.0 | 0.09 | 0.76 | 0.74 | 95 | 1008.0 |
| 20260506110615 | 46 | 45 | 7.8 | 11.3 | 0.08 | 0.74 | 0.72 | 95 | 1007.9 |
| 20260506105617 | 46 | 45 | 5.2 | 8.7 | 0.09 | 0.73 | 0.71 | 95 | 1007.9 |
| 20260506104617 | 46 | 45 | 5.2 | 7.0 | 0.08 | 0.71 | 0.69 | 95 | 1007.9 |
| 20260506103617 | 46 | 45 | 6.1 | 9.6 | 0.07 | 0.70 | 0.68 | 95 | 1007.9 |
| 20260506102617 | 45 | 0 | 4.3 | 6.1 | 0.07 | 0.69 | 0.67 | 95 | 1007.8 |
| 20260506101617 | 46 | 0 | 6.1 | 9.6 | 0.05 | 0.67 | 0.65 | 95 | 1007.8 |
| 20260506100617 | 46 | 23 | 5.2 | 8.7 | 0.05 | 0.66 | 0.64 | 95 | 1007.7 |
| 20260506095617 | 46 | 45 | 4.3 | 6.1 | 0.03 | 0.64 | 0.62 | 95 | 1007.7 |
| 20260506094617 | 45 | 23 | 5.2 | 6.1 | 0.03 | 0.63 | 0.61 | 95 | 1007.7 |
| 20260506093617 | 45 | 23 | 4.3 | 7.0 | 0.03 | 0.63 | 0.61 | 95 | 1007.5 |
| 20260506092617 | 44 | 23 | 4.3 | 6.1 | 0.04 | 0.62 | 0.60 | 95 | 1007.4 |
| 20260506091617 | 44 | 23 | 5.2 | 7.8 | 0.04 | 0.62 | 0.60 | 95 | 1007.4 |
| 20260506090617 | 44 | 0 | 3.5 | 6.1 | 0.04 | 0.61 | 0.59 | 95 | 1007.4 |
| 20260506085617 | 44 | 23 | 4.3 | 6.1 | 0.04 | 0.61 | 0.59 | 95 | 1007.4 |
| 20260506084617 | 43 | 23 | 7.8 | 9.6 | 0.04 | 0.60 | 0.58 | 95 | 1007.4 |
| 20260506083617 | 43 | 45 | 6.1 | 9.6 | 0.04 | 0.60 | 0.58 | 95 | 1007.4 |
| 20260506082616 | 43 | 23 | 4.3 | 7.8 | 0.03 | 0.58 | 0.56 | 95 | 1007.4 |
| 20260506081616 | 43 | 23 | 7.0 | 10.4 | 0.04 | 0.58 | 0.56 | 95 | 1007.4 |
| 20260506080617 | 43 | 23 | 7.0 | 9.6 | 0.04 | 0.57 | 0.55 | 95 | 1007.4 |
| 20260506072616 | 43 | 45 | 6.1 | 9.6 | 0.07 | 0.55 | 0.53 | 95 | 1007.3 |
| 20260506071616 | 43 | 23 | 3.5 | 5.2 | 0.07 | 0.54 | 0.52 | 95 | 1007.3 |
| 20260506070616 | 43 | 45 | 3.5 | 5.2 | 0.07 | 0.53 | 0.51 | 94 | 1007.3 |
| 20260506061616 | 43 | 45 | 7.0 | 9.6 | 0.04 | 0.47 | 0.45 | 94 | 1007.0 |
| 20260506060616 | 43 | 23 | 6.1 | 9.6 | 0.04 | 0.46 | 0.44 | 94 | 1006.9 |
| 20260506050616 | 44 | 68 | 5.2 | 7.8 | 0.07 | 0.42 | 0.40 | 94 | 1006.9 |
| 20260506044616 | 44 | 45 | 6.1 | 9.6 | 0.07 | 0.41 | 0.38 | 94 | 1006.9 |
| 20260506043616 | 44 | 23 | 6.1 | 8.7 | 0.06 | 0.39 | 0.36 | 94 | 1006.8 |
| 20260506042616 | 44 | 68 | 6.1 | 11.3 | 0.06 | 0.38 | 0.35 | 94 | 1006.8 |
| 20260506041616 | 45 | 45 | 7.0 | 9.6 | 0.07 | 0.38 | 0.34 | 94 | 1006.8 |
| 20260506040616 | 45 | 23 | 5.2 | 7.8 | 0.07 | 0.37 | 0.33 | 94 | 1006.8 |
| 20260506035615 | 45 | 45 | 5.2 | 7.8 | 0.08 | 0.36 | 0.32 | 94 | 1006.8 |
| 20260506034616 | 45 | 23 | 4.3 | 7.8 | 0.09 | 0.36 | 0.31 | 94 | 1006.8 |
| 20260506033616 | 46 | 23 | 6.1 | 10.4 | 0.10 | 0.35 | 0.30 | 94 | 1006.8 |
| 20260506032615 | 46 | 23 | 4.3 | 7.8 | 0.11 | 0.34 | 0.29 | 94 | 1006.9 |
| 20260506031616 | 46 | 45 | 5.2 | 7.8 | 0.11 | 0.33 | 0.27 | 94 | 1006.9 |
| 20260506030615 | 46 | 45 | 5.2 | 8.7 | 0.12 | 0.32 | 0.26 | 93 | 1007.1 |
| 20260506025616 | 46 | 0 | 6.1 | 8.7 | 0.12 | 0.30 | 0.24 | 93 | 1007.2 |
| 20260506024616 | 46 | 45 | 6.1 | 10.4 | 0.12 | 0.29 | 0.22 | 93 | 1007.2 |
| 20260506023615 | 47 | 23 | 7.0 | 10.4 | 0.12 | 0.27 | 0.20 | 93 | 1007.3 |
| 20260506022615 | 47 | 45 | 7.0 | 9.6 | 0.12 | 0.26 | 0.18 | 93 | 1007.3 |
| 20260506021615 | 47 | 23 | 7.8 | 11.3 | 0.11 | 0.24 | 0.16 | 93 | 1007.3 |
| 20260506020615 | 47 | 45 | 4.3 | 6.1 | 0.10 | 0.23 | 0.14 | 93 | 1007.4 |
| 20260506015615 | 48 | 23 | 4.3 | 8.7 | 0.09 | 0.21 | 0.12 | 93 | 1007.4 |
| 20260506014615 | 48 | 45 | 6.1 | 9.6 | 0.08 | 0.19 | 0.10 | 92 | 1007.4 |
| 20260506013615 | 48 | 0 | 5.2 | 7.8 | 0.06 | 0.17 | 0.08 | 92 | 1007.5 |
| 20260506012615 | 48 | 0 | 4.3 | 6.1 | 0.05 | 0.16 | 0.06 | 92 | 1007.6 |
| 20260506011617 | 49 | 23 | 3.5 | 4.3 | 0.05 | 0.15 | 0.05 | 91 | 1007.6 |
| 20260506010617 | 49 | 23 | 5.2 | 7.8 | 0.04 | 0.14 | 0.04 | 91 | 1007.6 |
| 20260506005617 | 49 | 0 | 3.5 | 5.2 | 0.03 | 0.13 | 0.03 | 90 | 1007.8 |
| 20260506004617 | 49 | 0 | 3.5 | 5.2 | 0.02 | 0.13 | 0.02 | 90 | 1007.8 |
| 20260506003617 | 50 | 23 | 5.2 | 10.4 | 0.02 | 0.13 | 0.02 | 89 | 1007.9 |
| 20260506002617 | 50 | 23 | 5.2 | 8.7 | 0.01 | 0.12 | 0.01 | 88 | 1007.9 |
| 20260506001617 | 50 | 23 | 6.1 | 7.8 | 0.00 | 0.11 | 0.00 | 88 | 1007.9 |
| 20260506000617 | 50 | 45 | 5.2 | 8.7 | 0.00 | 0.11 | 0.00 | 88 | 1007.9 |
| 20260505235617 | 50 | 23 | 4.3 | 7.8 | 0.00 | 0.11 | 0.00 | 89 | 1008.1 |
| 20260505234617 | 50 | 23 | 6.1 | 9.6 | 0.00 | 0.11 | 0.00 | 89 | 1008.1 |
| 20260505233617 | 51 | 23 | 4.3 | 7.0 | 0.00 | 0.12 | 0.00 | 89 | 1008.3 |
| 20260505232617 | 51 | 23 | 5.2 | 7.8 | 0.00 | 0.12 | 0.00 | 89 | 1008.4 |
| 20260505231617 | 51 | 45 | 5.2 | 7.0 | 0.00 | 0.12 | 0.00 | 89 | 1008.4 |
| 20260505230617 | 51 | 45 | 5.2 | 6.1 | 0.00 | 0.12 | 0.00 | 90 | 1008.4 |
| 20260505225617 | 51 | 45 | 4.3 | 7.8 | 0.00 | 0.13 | 0.00 | 90 | 1008.4 |
| 20260505224616 | 51 | 23 | 7.0 | 9.6 | 0.00 | 0.13 | 0.00 | 91 | 1008.4 |
| 20260505223617 | 51 | 45 | 4.3 | 5.2 | 0.00 | 0.14 | 0.00 | 91 | 1008.6 |
| 20260505222617 | 51 | 23 | 3.5 | 5.2 | 0.00 | 0.15 | 0.00 | 92 | 1008.6 |
| 20260505221617 | 51 | 23 | 5.2 | 7.0 | 0.00 | 0.16 | 0.00 | 92 | 1008.6 |
| 20260505220616 | 51 | 23 | 5.2 | 7.8 | 0.00 | 0.18 | 0.00 | 92 | 1008.7 |
| 20260505215616 | 51 | 45 | 7.8 | 9.6 | 0.00 | 0.20 | 0.19 | 93 | 1008.8 |
| 20260505214616 | 51 | 45 | 3.5 | 4.3 | 0.00 | 0.24 | 0.19 | 93 | 1008.8 |
| 20260505213616 | 51 | 23 | 3.5 | 5.2 | 0.00 | 0.28 | 0.19 | 93 | 1008.9 |
| 20260505212616 | 51 | 23 | 2.6 | 3.5 | 0.00 | 0.31 | 0.19 | 93 | 1008.9 |
| 20260505211616 | 51 | 23 | 3.5 | 4.3 | 0.00 | 0.35 | 0.19 | 93 | 1008.9 |
| 20260505210616 | 51 | 23 | 2.6 | 4.3 | 0.00 | 0.38 | 0.19 | 93 | 1008.9 |
| 20260505205616 | 51 | 23 | 2.6 | 3.5 | 0.00 | 0.41 | 0.19 | 93 | 1008.9 |
| 20260505204616 | 51 | 0 | 2.6 | 4.3 | 0.00 | 0.44 | 0.19 | 93 | 1008.9 |
| 20260505203615 | 51 | 23 | 5.2 | 6.1 | 0.00 | 0.45 | 0.19 | 93 | 1008.9 |
| 20260505202615 | 51 | 23 | 3.5 | 5.2 | 0.00 | 0.45 | 0.19 | 92 | 1008.9 |
| 20260505201616 | 51 | 0 | 3.5 | 5.2 | 0.00 | 0.46 | 0.19 | 92 | 1008.9 |
| 20260505200616 | 51 | 0 | 3.5 | 6.1 | 0.00 | 0.46 | 0.19 | 92 | 1008.9 |
| 20260505195616 | 52 | 0 | 2.6 | 3.5 | 0.00 | 0.46 | 0.19 | 92 | 1008.9 |
| 20260505194616 | 52 | 23 | 2.6 | 4.3 | 0.00 | 0.46 | 0.19 | 91 | 1008.9 |
| 20260505193616 | 52 | 45 | 3.5 | 5.2 | 0.00 | 0.46 | 0.19 | 91 | 1008.9 |
| 20260505192615 | 52 | 23 | 3.5 | 5.2 | 0.00 | 0.46 | 0.19 | 91 | 1008.9 |
| 20260505191615 | 52 | 23 | 3.5 | 5.2 | 0.00 | 0.46 | 0.19 | 91 | 1008.9 |
| 20260505190615 | 52 | 45 | 3.5 | 4.3 | 0.00 | 0.46 | 0.19 | 90 | 1008.9 |
| 20260505185615 | 52 | 45 | 4.3 | 6.1 | 0.00 | 0.46 | 0.19 | 90 | 1008.9 |
| 20260505184615 | 52 | 23 | 3.5 | 4.3 | 0.00 | 0.46 | 0.19 | 90 | 1008.9 |
| 20260505183615 | 52 | 45 | 2.6 | 4.3 | 0.00 | 0.46 | 0.19 | 90 | 1008.9 |
| 20260505182615 | 52 | 45 | 3.5 | 5.2 | 0.00 | 0.46 | 0.19 | 90 | 1008.9 |
| 20260505181615 | 52 | 23 | 5.2 | 7.8 | 0.00 | 0.46 | 0.19 | 89 | 1008.9 |
| 20260505180617 | 52 | 45 | 4.3 | 7.0 | 0.00 | 0.46 | 0.19 | 89 | 1008.9 |
| 20260505175617 | 52 | 23 | 4.3 | 5.2 | 0.00 | 0.46 | 0.19 | 89 | 1008.9 |
| 20260505174617 | 52 | 23 | 3.5 | 4.3 | 0.00 | 0.46 | 0.19 | 89 | 1008.9 |
| 20260505173617 | 52 | 45 | 4.3 | 6.1 | 0.00 | 0.46 | 0.19 | 89 | 1008.9 |
| 20260505172617 | 52 | 45 | 3.5 | 6.1 | 0.00 | 0.46 | 0.19 | 88 | 1008.9 |
| 20260505171617 | 52 | 23 | 7.0 | 8.7 | 0.00 | 0.46 | 0.19 | 88 | 1008.9 |
| 20260505170617 | 52 | 45 | 5.2 | 6.1 | 0.00 | 0.46 | 0.19 | 89 | 1009.2 |
| 20260505165617 | 52 | 45 | 3.5 | 6.1 | 0.00 | 0.46 | 0.19 | 89 | 1009.1 |
| 20260505164617 | 52 | 23 | 5.2 | 8.7 | 0.00 | 0.46 | 0.19 | 89 | 1009.1 |
| 20260505163617 | 52 | 23 | 5.2 | 7.8 | 0.00 | 0.46 | 0.19 | 88 | 1009.3 |
| 20260505162617 | 52 | 45 | 7.0 | 8.7 | 0.00 | 0.46 | 0.19 | 89 | 1009.2 |
| 20260505161617 | 52 | 45 | 7.0 | 11.3 | 0.00 | 0.46 | 0.19 | 89 | 1009.2 |
| 20260505160617 | 52 | 45 | 7.0 | 10.4 | 0.00 | 0.46 | 0.19 | 90 | 1009.3 |